Volver al catálogo

KAZEOSAT 1

ActivoCienciaSSO
NORAD 39731·PAYLOAD·🇰🇿 Kazakhstan

Lanzado Apr 30, 2014 desde Guiana Space Centre

Loading…

Próximos Pases (próximas 24 horas)

TLE

ActualizadoSource: Space-Track

Época: Sep 14, 2026, 14:22 UTC

1 39731U 14024A   26257.59892052  .00000181  00000-0  68236-4 0  9995
2 39731  98.3135 327.7851 0001409  91.8292 268.3059 14.42064044651444

Sigue KAZEOSAT 1 en tiempo real con AllMySat

Download on the App Store